Bankso, Bulgaria 16 day weather forecast

Slopes altitude range 990 m - 2600m

Number of lifts: 14 Pistes: 70km

In some cases the lift and piste totals shown are for the ski domain (e.g. Three Valleys) rather than individual resort (e.g. Courchevel)

Overview

The 16 day weather forecast is fully updated 4 times every day.

    • Sun 26 MAY 2019
    • Sun 26
    • 15C 20C
    • Mon 27 MAY 2019
    • Mon 27
    • 16C 21C
    • Tue 28 MAY 2019
    • Tue 28
    • 16C 19C
    • Wed 29 MAY 2019
    • Wed 29
    • 14C 18C
    • Thu 30 MAY 2019
    • Thu 30
    • 15C 17C
    • Fri 31 MAY 2019
    • Fri 31
    • 12C 16C
    • Sat 01 JUN 2019
    • Sat 01
    • 6C 8C
    • Sun 02 JUN 2019
    • Sun 02
    • 7C 12C
    • Mon 03 JUN 2019
    • Mon 03
    • 9C 14C
    • Tue 04 JUN 2019
    • Tue 04
    • 11C 15C
    • Wed 05 JUN 2019
    • Wed 05
    • 10C 15C
    • Thu 06 JUN 2019
    • Thu 06
    • 11C 15C
    • Fri 07 JUN 2019
    • Fri 07
    • 11C 19C
    • Sat 08 JUN 2019
    • Sat 08
    • 13C 23C
    • Sun 09 JUN 2019
    • Sun 09
    • 14C 22C
    • Mon 10 JUN 2019
    • Mon 10
    • 14C 23C

Date:

Time Type 0°C level Temp Chill Snow Cloud Speed Gust Dir Press
12:00 3210m 20°C 20_4 0cm 73% 4mph 5mph 1016mB
15:00 3339m 19°C 19_5 0cm 80% 5mph 6mph 1015mB
18:00 3585m 19°C 19_3 0cm 85% 3mph 4mph 1016mB
21:00 3659m 10°C 10_2 0cm 86% 2mph 3mph 1017mB
0:00 3812m 9°C 9_2 0cm 64% 2mph 3mph 1017mB
3:00 3770m 8°C 8_2 0cm 57% 2mph 3mph 1016mB
6:00 3841m 8°C 8_4 0cm 61% 4mph 6mph 1016mB
9:00 3922m 16°C 16_7 0cm 90% 7mph 9mph 1015mB
12:00 3884m 21°C 21_7 0cm 94% 7mph 11mph 1014mB
15:00 3862m 20°C 20_7 0cm 100% 7mph 10mph 1013mB
18:00 3808m 20°C 20_5 0cm 100% 5mph 6mph 1013mB
21:00 3771m 10°C 10_4 0cm 25% 4mph 6mph 1013mB
0:00 3693m 9°C 9_4 0cm 15% 4mph 6mph 1013mB
3:00 3617m 9°C 9_4 0cm 0% 4mph 6mph 1011mB
6:00 3543m 9°C 9_8 0cm 0% 8mph 17mph 1011mB
9:00 3431m 16°C 16_11 0cm 0% 11mph 21mph 1010mB
12:00 3244m 19°C 19_10 0cm 0% 10mph 15mph 1008mB
15:00 3334m 19°C 19_9 0cm 0% 9mph 11mph 1007mB
18:00 3351m 19°C 19_5 0cm 3% 5mph 8mph 1008mB
21:00 3324m 9°C 9_5 0cm 4% 5mph 6mph 1010mB
0:00 3479m 8°C 8_4 0cm 6% 4mph 5mph 1010mB
3:00 3420m 7°C 7_2 0cm 18% 2mph 3mph 1011mB
6:00 3387m 7°C 7_5 0cm 18% 5mph 6mph 1011mB
9:00 3160m 14°C 14_6 0cm 3% 6mph 6mph 1011mB
12:00 3287m 18°C 18_6 0cm 19% 6mph 8mph 1010mB
15:00 3410m 18°C 18_6 0cm 56% 6mph 8mph 1010mB
18:00 3391m 18°C 18_4 0cm 37% 4mph 5mph 1012mB
21:00 3366m 9°C 9_2 0cm 11% 2mph 3mph 1014mB
0:00 3271m 8°C 8_1 0cm 12% 1mph 2mph 1014mB
3:00 3195m 8°C 8_3 0cm 19% 3mph 3mph 1014mB
6:00 3188m 8°C 8_3 0cm 15% 3mph 4mph 1015mB
9:00 3214m 15°C 15_3 0cm 40% 3mph 6mph 1014mB
12:00 3312m 17°C 17_5 0cm 50% 5mph 8mph 1013mB
15:00 3282m 18°C 18_5 0cm 54% 5mph 7mph 1012mB
18:00 3327m 18°C 18_2 0cm 44% 2mph 2mph 1013mB
21:00 3313m 9°C 9_1 0cm 9% 1mph 2mph 1014mB
0:00 3149m 8°C 8_1 0cm 9% 1mph 2mph 1014mB
3:00 3066m 7°C 7_2 0cm 29% 2mph 3mph 1014mB
6:00 2976m 7°C 7_2 0cm 41% 2mph 3mph 1014mB
9:00 2913m 12°C 12_2 0cm 16% 2mph 2mph 1013mB
12:00 2996m 16°C 16_4 0cm 47% 4mph 4mph 1011mB
15:00 2950m 13°C 13_5 0cm 98% 5mph 8mph 1011mB
18:00 2913m 13°C 13_5 0cm 99% 5mph 7mph 1012mB
21:00 2867m 7°C 7_4 0cm 100% 4mph 6mph 1012mB
0:00 2723m 6°C 6_3 0cm 96% 3mph 5mph 1012mB
3:00 2714m 5°C 5_3 0cm 67% 3mph 4mph 1011mB
6:00 2697m 5°C 5_5 0cm 75% 5mph 7mph 1011mB
9:00 2604m 6°C 6_5 0cm 100% 5mph 8mph 1011mB
12:00 2457m 8°C 8_7 0cm 100% 7mph 11mph 1012mB
15:00 2636m 7°C 7_7 0cm 95% 7mph 11mph 1013mB
18:00 2542m 7°C 7_6 0cm 93% 6mph 10mph 1014mB
21:00 2471m 3°C 3_5 0cm 99% 5mph 7mph 1015mB
0:00 2456m 3°C 3_4 0cm 97% 4mph 5mph 1015mB
3:00 2421m 3°C 3_3 0cm 100% 3mph 4mph 1015mB
6:00 2436m 3°C 3_3 0cm 99% 3mph 5mph 1015mB
9:00 2429m 7°C 7_1 0cm 100% 1mph 1mph 1015mB
12:00 2571m 12°C 12_2 0cm 100% 2mph 2mph 1015mB
15:00 2719m 12°C 12_4 0cm 99% 4mph 5mph 1015mB
18:00 2687m 12°C 12_4 0cm 100% 4mph 6mph 1016mB
21:00 2586m 7°C 7_2 0cm 98% 2mph 4mph 1017mB
0:00 2558m 7°C 7_1 0cm 99% 1mph 2mph 1016mB
3:00 2555m 6°C 6_2 0cm 87% 2mph 2mph 1016mB
6:00 2524m 6°C 6_4 0cm 79% 4mph 6mph 1016mB
9:00 2500m 9°C 9_6 0cm 57% 6mph 7mph 1015mB
12:00 2684m 14°C 14_7 0cm 64% 7mph 8mph 1015mB
15:00 2728m 14°C 14_6 0cm 49% 6mph 9mph 1015mB
18:00 2664m 14°C 14_4 0cm 50% 4mph 5mph 1016mB
21:00 2709m 7°C 7_1 0cm 27% 1mph 1mph 1017mB
0:00 2736m 6°C 6_2 0cm 25% 2mph 2mph 1017mB
3:00 2690m 6°C 6_2 0cm 32% 2mph 2mph 1017mB
6:00 2647m 6°C 6_2 0cm 40% 2mph 1mph 1017mB
9:00 2732m 11°C 11_4 0cm 90% 4mph 4mph 1016mB
12:00 2812m 15°C 15_2 0cm 83% 2mph 2mph 1015mB
15:00 2829m 14°C 14_4 0cm 85% 4mph 5mph 1015mB
18:00 2798m 14°C 14_3 0cm 91% 3mph 5mph 1016mB
21:00 2841m 7°C 7_1 0cm 99% 1mph 1mph 1017mB
0:00 2826m 7°C 7_1 0cm 99% 1mph 2mph 1017mB
3:00 2725m 7°C 7_0 0cm 98% 0mph 0mph 1018mB
6:00 2744m 7°C 7_2 0cm 93% 2mph 2mph 1018mB
Afternoon 0mm 9.9375 3010m 15°C 15_2 0cm 95% 2mph 3mph 1016mB
Morning 0mm 0.625 2940m 8°C 8_3 0cm 90% 3mph 4mph 1018mB
Afternoon 0.192708mm 8.125 3140m 15°C 15_2 0cm 100% 2mph 2mph 1015mB
Morning 0.00520833mm 0.5625 3092m 8°C 8_3 0cm 89% 3mph 5mph 1015mB
Afternoon 0.317708mm 9.625 3300m 19°C 19_2 0cm 93% 2mph 3mph 1013mB
Morning 0.0208333mm 0.4375 3271m 9°C 9_2 0cm 85% 2mph 4mph 1015mB
Afternoon 0.421875mm 8.125 3501m 23°C 23_3 0cm 80% 3mph 4mph 1014mB
Morning 0.0520833mm 0.4375 3413m 10°C 10_4 0cm 58% 4mph 6mph 1016mB
Afternoon 1.00521mm 5.9375 3574m 22°C 22_1 0cm 99% 1mph 2mph 1014mB
Morning 0.380208mm 1.0625 3505m 10°C 10_3 0cm 71% 3mph 5mph 1014mB
Afternoon 0mm 5.25 3649m 23°C 23_3 0cm 93% 3mph 4mph 1012mB
Morning 0mm 0 3733m 11°C 11_3 0cm 77% 3mph 5mph 1012mB

16 day outlook at a glance

Forecast issued: 26/05/2019 12:22:01

Chat

Your comments and questions. In a resort? Let us know what it's like!


Characters left 250

For terms and conditions see Readers Comments on the Cookie and privacy policy page.